START_TIME,STEP,MOV.,AL01,t_acc.,AL02,t_acc.,E37,t_acc.,H21,t_acc.
1980-11-14 18:00:22.880 ,6,0,0.,24.0,0.,24.0,0.,24.0,0.,24.0
1980-11-14 18:00:46.880 ,5,1,0.,24.0,0.,24.0,0.,24.0,0.,24.0
1980-11-14 18:01:10.880 ,5,0,0.,24.0,0.,24.0,0.,24.0,0.,24.0
1980-11-14 18:01:34.880 ,4,1,0.,24.0,0.,24.0,0.,24.0,0.,24.0
1980-11-14 18:01:58.880 ,4,0,0.,24.0,0.,24.0,0.,24.0,0.,24.0
1980-11-14 18:02:22.880 ,3,1,0.,24.0,0.,24.0,0.,24.0,0.,24.0
1980-11-14 18:02:46.880 ,3,0,0.,24.0,0.,24.0,0.,24.0,0.,24.0
1980-11-14 18:03:10.880 ,2,1,0.,24.0,0.,24.0,0.,24.0,0.,24.0
1980-11-14 18:03:34.880 ,2,0,0.,24.0,0.,24.0,0.,24.0,0.,24.0
1980-11-14 18:03:58.880 ,1,1,0.,24.0,0.,24.0,0.,24.0,0.,24.0
1980-11-14 18:04:22.880 ,1,0,0.,24.0,0.,24.0,1.,24.0,0.,24.0
1980-11-14 18:04:46.880 ,0,1,0.,24.0,0.,24.0,0.,24.0,0.,24.0
1980-11-14 18:05:10.880 ,0,0,0.,24.0,0.,24.0,1.,24.0,0.,24.0
1980-11-14 18:05:34.880 ,0,1,0.,24.0,0.,24.0,1.,24.0,0.,24.0
1980-11-14 18:05:58.880 ,0,0,0.,24.0,0.,24.0,1.,24.0,0.,24.0
1980-11-14 18:06:22.880 ,1,1,0.,24.0,0.,24.0,0.,24.0,0.,24.0
1980-11-14 18:06:46.880 ,1,0,0.,24.0,0.,24.0,1.,24.0,0.,24.0
1980-11-14 18:07:10.880 ,2,1,0.,24.0,0.,24.0,0.,24.0,0.,24.0
1980-11-14 18:07:34.880 ,2,0,0.,24.0,0.,24.0,1.,24.0,0.,24.0
1980-11-14 18:07:58.880 ,3,1,0.,24.0,0.,24.0,0.,24.0,0.,24.0
1980-11-14 18:08:22.880 ,3,0,0.,24.0,0.,24.0,0.,24.0,0.,24.0
1980-11-14 18:08:46.880 ,4,1,0.,24.0,0.,24.0,0.,24.0,0.,24.0
1980-11-14 18:09:10.880 ,4,0,0.,24.0,0.,24.0,0.,24.0,0.,24.0
1980-11-14 18:09:34.880 ,5,1,0.,24.0,0.,24.0,1.,24.0,0.,24.0
1980-11-14 18:09:58.880 ,5,0,0.,24.0,0.,24.0,0.,24.0,0.,24.0
1980-11-14 18:10:22.880 ,6,1,0.,24.0,0.,24.0,0.,24.0,0.,24.0
1980-11-14 18:10:46.880 ,6,0,0.,24.0,0.,24.0,0.,24.0,0.,24.0
1980-11-14 18:11:10.880 ,7,1,1.,24.0,0.,24.0,2.,24.0,0.,24.0
1980-11-14 18:11:34.880 ,7,0,11.,24.0,0.,24.0,0.,24.0,0.,24.0
1980-11-14 18:11:58.880 ,7,1,9.,24.0,0.,24.0,1.,24.0,0.,24.0
1980-11-14 18:12:22.880 ,7,0,4.,24.0,0.,24.0,0.,24.0,0.,24.0
1980-11-14 18:12:46.880 ,6,1,8.,24.0,0.,24.0,3.,24.0,0.,24.0
1980-11-14 18:13:10.880 ,6,0,0.,24.0,0.,24.0,1.,24.0,0.,24.0
1980-11-14 18:13:34.880 ,5,1,0.,24.0,0.,24.0,0.,24.0,0.,24.0
1980-11-14 18:13:58.880 ,5,0,0.,24.0,0.,24.0,0.,24.0,0.,24.0
1980-11-14 18:14:22.880 ,4,1,0.,24.0,0.,24.0,0.,24.0,0.,24.0
1980-11-14 18:14:46.880 ,4,0,0.,24.0,0.,24.0,0.,24.0,0.,24.0
1980-11-14 18:15:10.880 ,3,1,0.,24.0,0.,24.0,1.,24.0,0.,24.0
1980-11-14 18:15:34.880 ,3,0,0.,24.0,0.,24.0,0.,24.0,0.,24.0
1980-11-14 18:15:58.880 ,2,1,0.,24.0,0.,24.0,0.,24.0,0.,24.0
1980-11-14 18:16:22.880 ,2,0,0.,24.0,0.,24.0,0.,24.0,0.,24.0
1980-11-14 18:16:46.880 ,1,1,0.,24.0,0.,24.0,0.,24.0,0.,24.0
1980-11-14 18:17:10.880 ,1,0,0.,24.0,0.,24.0,0.,24.0,0.,24.0
1980-11-14 18:17:34.880 ,0,1,0.,24.0,0.,24.0,1.,24.0,0.,24.0
1980-11-14 18:17:58.880 ,0,0,0.,24.0,0.,24.0,0.,24.0,0.,24.0
1980-11-14 18:18:22.880 ,0,1,0.,24.0,0.,24.0,0.,24.0,0.,24.0
1980-11-14 18:18:46.880 ,0,0,0.,24.0,0.,24.0,2.,24.0,0.,24.0
1980-11-14 18:19:10.880 ,1,1,0.,24.0,0.,24.0,0.,24.0,0.,24.0
1980-11-14 18:19:34.880 ,1,0,0.,24.0,0.,24.0,1.,24.0,0.,24.0
1980-11-14 18:19:58.880 ,2,1,0.,24.0,0.,24.0,0.,24.0,0.,24.0
1980-11-14 18:20:22.880 ,2,0,0.,24.0,0.,24.0,1.,24.0,0.,24.0
1980-11-14 18:20:46.880 ,3,1,0.,24.0,0.,24.0,1.,24.0,0.,24.0
1980-11-14 18:21:10.880 ,3,0,0.,24.0,0.,24.0,0.,24.0,0.,24.0
1980-11-14 18:21:34.880 ,4,1,1.,24.0,0.,24.0,0.,24.0,0.,24.0
1980-11-14 18:21:58.880 ,4,0,0.,24.0,0.,24.0,1.,24.0,0.,24.0
1980-11-14 18:22:22.880 ,5,1,0.,24.0,0.,24.0,1.,24.0,0.,24.0
1980-11-14 18:22:46.880 ,5,0,0.,24.0,0.,24.0,3.,24.0,0.,24.0
1980-11-14 18:23:10.880 ,6,1,0.,24.0,0.,24.0,2.,24.0,0.,24.0
1980-11-14 18:23:34.880 ,6,0,0.,24.0,0.,24.0,0.,24.0,0.,24.0
1980-11-14 18:23:58.880 ,7,1,1.,24.0,0.,24.0,0.,24.0,0.,24.0
1980-11-14 18:24:22.880 ,7,0,11.,24.0,0.,24.0,0.,24.0,0.,24.0
1980-11-14 18:24:46.880 ,7,1,13.,24.0,0.,24.0,0.,24.0,0.,24.0
1980-11-14 18:25:10.880 ,7,0,7.,24.0,0.,24.0,2.,24.0,0.,24.0
1980-11-14 18:25:34.880 ,6,1,12.,24.0,0.,24.0,1.,24.0,0.,24.0
1980-11-14 18:25:58.880 ,6,0,0.,24.0,0.,24.0,0.,24.0,0.,24.0
1980-11-14 18:26:22.880 ,5,1,0.,24.0,0.,24.0,1.,24.0,0.,24.0
1980-11-14 18:26:46.880 ,5,0,0.,24.0,0.,24.0,0.,24.0,0.,24.0
1980-11-14 18:27:10.880 ,4,1,0.,24.0,0.,24.0,2.,24.0,0.,24.0
1980-11-14 18:27:34.880 ,4,0,0.,24.0,0.,24.0,0.,24.0,0.,24.0
1980-11-14 18:27:58.880 ,3,1,0.,24.0,0.,24.0,2.,24.0,0.,24.0
1980-11-14 18:28:22.880 ,3,0,0.,24.0,0.,24.0,0.,24.0,0.,24.0
1980-11-14 18:28:46.880 ,2,1,0.,24.0,0.,24.0,1.,24.0,0.,24.0
1980-11-14 18:29:10.880 ,2,0,0.,24.0,0.,24.0,1.,24.0,0.,24.0
1980-11-14 18:29:34.880 ,1,1,0.,24.0,0.,24.0,0.,24.0,0.,24.0
1980-11-14 18:29:58.880 ,1,0,0.,24.0,0.,24.0,1.,24.0,0.,24.0
1980-11-14 18:30:22.880 ,0,1,0.,24.0,0.,24.0,0.,24.0,0.,24.0
1980-11-14 18:30:46.880 ,0,0,0.,24.0,0.,24.0,0.,24.0,0.,24.0
1980-11-14 18:31:10.880 ,0,1,0.,24.0,0.,24.0,1.,24.0,0.,24.0
1980-11-14 18:31:34.880 ,0,0,0.,24.0,0.,24.0,0.,24.0,0.,24.0
1980-11-14 18:31:58.880 ,1,1,0.,24.0,0.,24.0,0.,24.0,0.,24.0
1980-11-14 18:32:22.880 ,1,0,0.,24.0,0.,24.0,1.,24.0,0.,24.0
1980-11-14 18:32:46.880 ,2,1,0.,24.0,0.,24.0,0.,24.0,0.,24.0
1980-11-14 18:33:10.880 ,2,0,0.,24.0,0.,24.0,0.,24.0,0.,24.0
1980-11-14 18:33:34.880 ,3,1,0.,24.0,0.,24.0,2.,24.0,0.,24.0
1980-11-14 18:33:58.880 ,3,0,0.,24.0,0.,24.0,0.,24.0,0.,24.0
1980-11-14 18:34:22.880 ,4,1,0.,24.0,0.,24.0,0.,24.0,0.,24.0
1980-11-14 18:34:46.880 ,4,0,0.,24.0,0.,24.0,1.,24.0,0.,24.0
1980-11-14 18:35:10.880 ,5,1,0.,24.0,0.,24.0,0.,24.0,0.,24.0
1980-11-14 18:35:34.880 ,5,0,0.,24.0,0.,24.0,0.,24.0,0.,24.0
1980-11-14 18:35:58.880 ,6,1,0.,24.0,0.,24.0,0.,24.0,0.,24.0
1980-11-14 18:36:22.880 ,6,0,0.,24.0,0.,24.0,1.,24.0,0.,24.0
1980-11-14 18:36:46.880 ,7,1,2.,24.0,0.,24.0,1.,24.0,0.,24.0
1980-11-14 18:37:10.880 ,7,0,6.,24.0,0.,24.0,0.,24.0,0.,24.0
1980-11-14 18:37:34.880 ,7,1,12.,24.0,0.,24.0,0.,24.0,0.,24.0
1980-11-14 18:37:58.880 ,7,0,11.,24.0,0.,24.0,0.,24.0,0.,24.0
1980-11-14 18:38:22.880 ,6,1,12.,24.0,0.,24.0,0.,24.0,0.,24.0
1980-11-14 18:38:46.880 ,6,0,0.,24.0,0.,24.0,0.,24.0,0.,24.0
1980-11-14 18:39:10.880 ,5,1,0.,24.0,0.,24.0,0.,24.0,0.,24.0
1980-11-14 18:39:34.880 ,5,0,0.,24.0,0.,24.0,0.,24.0,0.,24.0
1980-11-14 18:39:58.880 ,4,1,0.,24.0,0.,24.0,1.,24.0,0.,24.0
1980-11-14 18:40:22.880 ,4,0,0.,24.0,0.,24.0,0.,24.0,0.,24.0
1980-11-14 18:40:46.880 ,3,1,0.,24.0,0.,24.0,0.,24.0,0.,24.0
1980-11-14 18:41:10.880 ,3,0,0.,24.0,0.,24.0,0.,24.0,0.,24.0
1980-11-14 18:41:34.880 ,2,1,0.,24.0,0.,24.0,0.,24.0,0.,24.0
1980-11-14 18:41:58.880 ,2,0,0.,24.0,0.,24.0,0.,24.0,0.,24.0
1980-11-14 18:42:22.880 ,1,1,0.,24.0,0.,24.0,1.,24.0,0.,24.0
1980-11-14 18:42:46.880 ,1,0,0.,24.0,0.,24.0,0.,24.0,0.,24.0
1980-11-14 18:43:10.880 ,0,1,0.,24.0,0.,24.0,0.,24.0,0.,24.0
1980-11-14 18:43:34.880 ,0,0,0.,24.0,0.,24.0,1.,24.0,0.,24.0
1980-11-14 18:43:58.880 ,0,1,0.,24.0,0.,24.0,1.,24.0,0.,24.0
1980-11-14 18:44:22.880 ,0,0,0.,24.0,0.,24.0,1.,24.0,0.,24.0
1980-11-14 18:44:46.880 ,1,1,0.,24.0,0.,24.0,0.,24.0,0.,24.0
1980-11-14 18:45:10.880 ,1,0,0.,24.0,0.,24.0,0.,24.0,0.,24.0
1980-11-14 18:45:34.880 ,2,1,0.,24.0,0.,24.0,0.,24.0,0.,24.0
1980-11-14 18:45:58.880 ,2,0,0.,24.0,0.,24.0,1.,24.0,0.,24.0
1980-11-14 18:46:22.880 ,3,1,0.,24.0,0.,24.0,0.,24.0,0.,24.0
1980-11-14 18:46:46.880 ,3,0,0.,24.0,0.,24.0,0.,24.0,0.,24.0
1980-11-14 18:47:10.880 ,4,1,0.,24.0,0.,24.0,0.,24.0,0.,24.0
1980-11-14 18:47:34.880 ,4,0,0.,24.0,0.,24.0,0.,24.0,0.,24.0
1980-11-14 18:47:58.880 ,5,1,0.,24.0,0.,24.0,0.,24.0,0.,24.0
1980-11-14 18:48:22.880 ,5,0,0.,24.0,0.,24.0,0.,24.0,0.,24.0
1980-11-14 18:48:46.880 ,6,1,0.,24.0,0.,24.0,0.,24.0,0.,24.0
1980-11-14 18:49:10.880 ,6,0,0.,24.0,0.,24.0,2.,24.0,0.,24.0
1980-11-14 18:49:34.880 ,7,1,0.,24.0,0.,24.0,0.,24.0,0.,24.0
1980-11-14 18:49:58.880 ,7,0,11.,24.0,0.,24.0,0.,24.0,0.,24.0
1980-11-14 18:50:22.880 ,7,1,8.,24.0,0.,24.0,1.,24.0,0.,24.0
1980-11-14 18:50:46.880 ,7,0,9.,24.0,0.,24.0,0.,24.0,0.,24.0
1980-11-14 18:51:10.880 ,6,1,10.,24.0,0.,24.0,0.,24.0,0.,24.0
1980-11-14 18:51:34.880 ,6,0,0.,24.0,0.,24.0,0.,24.0,0.,24.0
1980-11-14 18:51:58.880 ,5,1,0.,24.0,0.,24.0,0.,24.0,0.,24.0
1980-11-14 18:52:22.880 ,5,0,0.,24.0,0.,24.0,2.,24.0,0.,24.0
1980-11-14 18:52:46.880 ,4,1,0.,24.0,0.,24.0,1.,24.0,0.,24.0
1980-11-14 18:53:10.880 ,4,0,0.,24.0,0.,24.0,0.,24.0,0.,24.0
1980-11-14 18:53:34.880 ,3,1,0.,24.0,0.,24.0,0.,24.0,0.,24.0
1980-11-14 18:53:58.880 ,3,0,0.,24.0,0.,24.0,0.,24.0,0.,24.0
1980-11-14 18:54:22.880 ,2,1,0.,24.0,0.,24.0,0.,24.0,0.,24.0
1980-11-14 18:54:46.880 ,2,0,0.,24.0,0.,24.0,0.,24.0,0.,24.0
1980-11-14 18:55:10.880 ,1,1,0.,24.0,0.,24.0,0.,24.0,0.,24.0
1980-11-14 18:55:34.880 ,1,0,0.,24.0,0.,24.0,0.,24.0,0.,24.0
1980-11-14 18:55:58.880 ,0,1,0.,24.0,0.,24.0,0.,24.0,0.,24.0
1980-11-14 18:56:22.880 ,0,0,0.,24.0,0.,24.0,0.,24.0,0.,24.0
1980-11-14 18:56:46.880 ,0,1,0.,24.0,0.,24.0,2.,24.0,0.,24.0
1980-11-14 18:57:10.880 ,0,0,0.,24.0,0.,24.0,0.,24.0,0.,24.0
1980-11-14 18:57:34.880 ,1,1,0.,24.0,0.,24.0,1.,24.0,0.,24.0
1980-11-14 18:57:58.880 ,1,0,0.,24.0,0.,24.0,0.,24.0,0.,24.0
1980-11-14 18:58:22.880 ,2,1,0.,24.0,0.,24.0,0.,24.0,0.,24.0
1980-11-14 18:58:46.880 ,2,0,0.,24.0,0.,24.0,0.,24.0,0.,24.0
1980-11-14 18:59:10.880 ,3,1,0.,24.0,0.,24.0,0.,24.0,0.,24.0
1980-11-14 18:59:34.880 ,3,0,0.,24.0,0.,24.0,1.,24.0,0.,24.0
1980-11-14 18:59:58.880 ,4,1,0.,24.0,0.,24.0,1.,24.0,0.,24.0
1980-11-14 19:00:22.880 ,4,0,0.,24.0,0.,24.0,0.,24.0,0.,24.0
1980-11-14 19:00:46.880 ,5,1,0.,24.0,0.,24.0,1.,24.0,0.,24.0
1980-11-14 19:01:10.880 ,5,0,0.,24.0,0.,24.0,0.,24.0,0.,24.0
1980-11-14 19:01:34.880 ,6,1,0.,24.0,0.,24.0,0.,24.0,0.,24.0
1980-11-14 19:01:58.880 ,6,0,0.,24.0,0.,24.0,1.,24.0,0.,24.0
1980-11-14 19:02:22.880 ,7,1,3.,24.0,0.,24.0,1.,24.0,0.,24.0
1980-11-14 19:02:46.880 ,7,0,13.,24.0,0.,24.0,0.,24.0,0.,24.0
1980-11-14 19:03:10.880 ,7,1,9.,24.0,0.,24.0,0.,24.0,0.,24.0
1980-11-14 19:03:34.880 ,7,0,14.,24.0,0.,24.0,1.,24.0,0.,24.0
1980-11-14 19:03:58.880 ,6,1,11.,24.0,0.,24.0,0.,24.0,0.,24.0
1980-11-14 19:04:22.880 ,6,0,0.,24.0,0.,24.0,1.,24.0,0.,24.0
1980-11-14 19:04:46.880 ,5,1,0.,24.0,0.,24.0,1.,24.0,0.,24.0
1980-11-14 19:05:10.880 ,5,0,0.,24.0,0.,24.0,0.,24.0,0.,24.0
1980-11-14 19:05:34.880 ,4,1,0.,24.0,0.,24.0,2.,24.0,0.,24.0
1980-11-14 19:05:58.880 ,4,0,0.,24.0,0.,24.0,1.,24.0,0.,24.0
1980-11-14 19:06:22.880 ,3,1,0.,24.0,0.,24.0,0.,24.0,0.,24.0
1980-11-14 19:06:46.880 ,3,0,0.,24.0,0.,24.0,0.,24.0,0.,24.0
1980-11-14 19:07:10.880 ,0,0,,0,,0,,0,,0
1980-11-14 19:07:34.880 ,0,0,,0,,0,,0,,0
1980-11-14 19:07:10.880 ,0,0,,0,,0,,0,,0
1980-11-14 19:07:34.880 ,0,0,,0,,0,,0,,0
1980-11-14 19:07:11.470 ,2,1,0.,24.0,0.,24.0,0.,24.0,0.,24.0
1980-11-14 19:07:34.880 ,2,0,1.,24.0,0.,24.0,0.,24.0,0.,24.0
1980-11-14 19:07:58.880 ,1,1,0.,24.0,0.,24.0,0.,24.0,0.,24.0
1980-11-14 19:08:22.880 ,1,0,0.,24.0,0.,24.0,1.,24.0,0.,24.0
1980-11-14 19:08:46.880 ,0,1,0.,24.0,0.,24.0,0.,24.0,0.,24.0
1980-11-14 19:09:10.880 ,0,0,0.,24.0,0.,24.0,0.,24.0,0.,24.0
1980-11-14 19:09:34.880 ,0,1,0.,24.0,0.,24.0,1.,24.0,0.,24.0
1980-11-14 19:09:58.880 ,0,0,0.,24.0,0.,24.0,0.,24.0,0.,24.0
1980-11-14 19:10:22.880 ,1,1,0.,24.0,0.,24.0,1.,24.0,0.,24.0
1980-11-14 19:10:46.880 ,1,0,0.,24.0,0.,24.0,0.,24.0,0.,24.0
1980-11-14 19:11:10.880 ,2,1,0.,24.0,0.,24.0,2.,24.0,0.,24.0
1980-11-14 19:11:34.880 ,2,0,0.,24.0,0.,24.0,0.,24.0,0.,24.0
1980-11-14 19:11:58.880 ,3,1,0.,24.0,0.,24.0,1.,24.0,0.,24.0
1980-11-14 19:12:22.880 ,3,0,0.,24.0,0.,24.0,0.,24.0,0.,24.0
1980-11-14 19:12:46.880 ,4,1,0.,24.0,0.,24.0,1.,24.0,0.,24.0
1980-11-14 19:13:10.880 ,4,0,0.,24.0,0.,24.0,1.,24.0,0.,24.0
1980-11-14 19:13:34.880 ,5,1,0.,24.0,0.,24.0,2.,24.0,0.,24.0
1980-11-14 19:13:58.880 ,5,0,0.,24.0,0.,24.0,0.,24.0,0.,24.0
1980-11-14 19:14:22.880 ,6,1,0.,24.0,0.,24.0,1.,24.0,0.,24.0
1980-11-14 19:14:46.880 ,6,0,0.,24.0,0.,24.0,0.,24.0,0.,24.0
1980-11-14 19:15:10.880 ,7,1,3.,24.0,0.,24.0,0.,24.0,0.,24.0
1980-11-14 19:15:34.880 ,7,0,11.,24.0,0.,24.0,1.,24.0,0.,24.0
1980-11-14 19:15:58.880 ,7,1,10.,24.0,0.,24.0,2.,24.0,0.,24.0
1980-11-14 19:16:22.880 ,7,0,7.,24.0,0.,24.0,0.,24.0,0.,24.0
1980-11-14 19:16:46.880 ,6,1,11.,24.0,0.,24.0,0.,24.0,0.,24.0
1980-11-14 19:17:10.880 ,6,0,0.,24.0,0.,24.0,1.,24.0,0.,24.0
1980-11-14 19:17:34.880 ,5,1,0.,24.0,0.,24.0,2.,24.0,0.,24.0
1980-11-14 19:17:58.880 ,5,0,0.,24.0,0.,24.0,3.,24.0,0.,24.0
1980-11-14 19:18:22.880 ,4,1,0.,24.0,0.,24.0,0.,24.0,0.,24.0
1980-11-14 19:18:46.880 ,4,0,0.,24.0,0.,24.0,0.,24.0,0.,24.0
1980-11-14 19:19:10.880 ,3,1,0.,24.0,0.,24.0,2.,24.0,0.,24.0
1980-11-14 19:19:34.880 ,3,0,0.,24.0,0.,24.0,0.,24.0,0.,24.0
1980-11-14 19:19:58.880 ,2,1,0.,24.0,0.,24.0,0.,24.0,0.,24.0
1980-11-14 19:20:22.880 ,2,0,0.,24.0,0.,24.0,1.,24.0,0.,24.0
1980-11-14 19:20:46.880 ,1,1,0.,24.0,0.,24.0,0.,24.0,0.,24.0
1980-11-14 19:21:10.880 ,1,0,0.,24.0,0.,24.0,2.,24.0,0.,24.0
1980-11-14 19:21:34.880 ,0,1,0.,24.0,0.,24.0,1.,24.0,0.,24.0
1980-11-14 19:21:58.880 ,0,0,0.,24.0,0.,24.0,0.,24.0,0.,24.0
1980-11-14 19:22:22.880 ,0,1,0.,24.0,0.,24.0,0.,24.0,0.,24.0
1980-11-14 19:22:46.880 ,0,0,0.,24.0,0.,24.0,0.,24.0,0.,24.0
1980-11-14 19:23:10.880 ,1,1,0.,24.0,0.,24.0,0.,24.0,0.,24.0
1980-11-14 19:23:34.880 ,1,0,0.,24.0,0.,24.0,0.,24.0,0.,24.0
1980-11-14 19:23:58.880 ,2,1,0.,24.0,1.,24.0,0.,24.0,0.,24.0
1980-11-14 19:24:22.880 ,2,0,0.,24.0,0.,24.0,0.,24.0,0.,24.0
1980-11-14 19:24:46.880 ,3,1,0.,24.0,0.,24.0,1.,24.0,0.,24.0
1980-11-14 19:25:10.880 ,3,0,0.,24.0,0.,24.0,1.,24.0,0.,24.0
1980-11-14 19:25:34.880 ,4,1,0.,24.0,0.,24.0,0.,24.0,0.,24.0
1980-11-14 19:25:58.880 ,4,0,0.,24.0,0.,24.0,2.,24.0,0.,24.0
1980-11-14 19:26:22.880 ,5,1,0.,24.0,0.,24.0,0.,24.0,0.,24.0
1980-11-14 19:26:46.880 ,5,0,0.,24.0,0.,24.0,0.,24.0,0.,24.0
1980-11-14 19:27:10.880 ,6,1,0.,24.0,0.,24.0,0.,24.0,0.,24.0
1980-11-14 19:27:34.880 ,6,0,0.,24.0,0.,24.0,0.,24.0,0.,24.0
1980-11-14 19:27:58.880 ,7,1,4.,24.0,0.,24.0,2.,24.0,0.,24.0
1980-11-14 19:28:22.880 ,7,0,12.,24.0,0.,24.0,0.,24.0,0.,24.0
1980-11-14 19:28:46.880 ,7,1,8.,24.0,0.,24.0,3.,24.0,0.,24.0
1980-11-14 19:29:10.880 ,7,0,8.,24.0,0.,24.0,1.,24.0,0.,24.0
1980-11-14 19:29:34.880 ,6,1,9.,24.0,0.,24.0,0.,24.0,0.,24.0
1980-11-14 19:29:58.880 ,6,0,0.,24.0,0.,24.0,1.,24.0,0.,24.0
1980-11-14 19:30:22.880 ,5,1,0.,24.0,0.,24.0,0.,24.0,0.,24.0
1980-11-14 19:30:46.880 ,5,0,0.,24.0,0.,24.0,0.,24.0,0.,24.0
1980-11-14 19:31:10.880 ,4,1,0.,24.0,0.,24.0,0.,24.0,0.,24.0
1980-11-14 19:31:34.880 ,4,0,0.,24.0,0.,24.0,0.,24.0,0.,24.0
1980-11-14 19:31:58.880 ,3,1,0.,24.0,0.,24.0,0.,24.0,0.,24.0
1980-11-14 19:32:22.880 ,3,0,0.,24.0,0.,24.0,0.,24.0,0.,24.0
1980-11-14 19:32:46.880 ,2,1,0.,24.0,0.,24.0,1.,24.0,0.,24.0
1980-11-14 19:33:10.880 ,2,0,0.,24.0,0.,24.0,1.,24.0,0.,24.0
1980-11-14 19:33:34.880 ,1,1,0.,24.0,0.,24.0,0.,24.0,0.,24.0
1980-11-14 19:33:58.880 ,1,0,0.,24.0,0.,24.0,0.,24.0,0.,24.0
1980-11-14 19:34:22.880 ,0,1,0.,24.0,0.,24.0,0.,24.0,0.,24.0
1980-11-14 19:34:46.880 ,0,0,0.,24.0,1.,24.0,0.,24.0,0.,24.0
1980-11-14 19:35:10.880 ,0,1,0.,24.0,0.,24.0,0.,24.0,0.,24.0
1980-11-14 19:35:34.880 ,0,0,0.,24.0,0.,24.0,0.,24.0,0.,24.0
1980-11-14 19:35:58.880 ,1,1,0.,24.0,0.,24.0,0.,24.0,0.,24.0
1980-11-14 19:36:22.880 ,1,0,0.,24.0,0.,24.0,0.,24.0,0.,24.0
1980-11-14 19:36:46.880 ,2,1,0.,24.0,0.,24.0,0.,24.0,0.,24.0
1980-11-14 19:37:10.880 ,2,0,0.,24.0,0.,24.0,1.,24.0,0.,24.0
1980-11-14 19:37:34.880 ,3,1,0.,24.0,0.,24.0,0.,24.0,0.,24.0
1980-11-14 19:37:58.880 ,3,0,0.,24.0,0.,24.0,0.,24.0,0.,24.0
1980-11-14 19:38:22.880 ,4,1,0.,24.0,0.,24.0,0.,24.0,0.,24.0
1980-11-14 19:38:46.880 ,4,0,0.,24.0,0.,24.0,1.,24.0,0.,24.0
1980-11-14 19:39:10.880 ,5,1,0.,24.0,0.,24.0,0.,24.0,0.,24.0
1980-11-14 19:39:34.880 ,5,0,0.,24.0,0.,24.0,0.,24.0,0.,24.0
1980-11-14 19:39:58.880 ,6,1,0.,24.0,0.,24.0,0.,24.0,0.,24.0
1980-11-14 19:40:22.880 ,6,0,0.,24.0,0.,24.0,0.,24.0,0.,24.0
1980-11-14 19:40:46.880 ,7,1,1.,24.0,0.,24.0,0.,24.0,0.,24.0
1980-11-14 19:41:10.880 ,7,0,6.,24.0,0.,24.0,1.,24.0,0.,24.0
1980-11-14 19:41:34.880 ,7,1,11.,24.0,0.,24.0,0.,24.0,0.,24.0
1980-11-14 19:41:58.880 ,7,0,7.,24.0,0.,24.0,0.,24.0,0.,24.0
1980-11-14 19:42:22.880 ,6,1,12.,24.0,0.,24.0,0.,24.0,0.,24.0
1980-11-14 19:42:46.880 ,6,0,0.,24.0,0.,24.0,0.,24.0,0.,24.0
1980-11-14 19:43:10.880 ,5,1,0.,24.0,0.,24.0,2.,24.0,0.,24.0
1980-11-14 19:43:34.880 ,5,0,0.,24.0,0.,24.0,0.,24.0,0.,24.0
1980-11-14 19:43:58.880 ,4,1,0.,24.0,0.,24.0,2.,24.0,0.,24.0
1980-11-14 19:44:22.880 ,4,0,0.,24.0,0.,24.0,1.,24.0,0.,24.0
1980-11-14 19:44:46.880 ,3,1,0.,24.0,0.,24.0,0.,24.0,0.,24.0
1980-11-14 19:45:10.880 ,3,0,0.,24.0,0.,24.0,1.,24.0,0.,24.0
1980-11-14 19:45:34.880 ,2,1,0.,24.0,0.,24.0,0.,24.0,0.,24.0
1980-11-14 19:45:58.880 ,2,0,0.,24.0,0.,24.0,1.,24.0,0.,24.0
1980-11-14 19:46:22.880 ,1,1,0.,24.0,0.,24.0,0.,24.0,0.,24.0
1980-11-14 19:46:46.880 ,1,0,0.,24.0,0.,24.0,1.,24.0,0.,24.0
1980-11-14 19:47:10.880 ,0,1,0.,24.0,0.,24.0,0.,24.0,0.,24.0
1980-11-14 19:47:34.880 ,0,0,0.,24.0,0.,24.0,1.,24.0,0.,24.0
1980-11-14 19:47:58.880 ,0,1,0.,24.0,0.,24.0,0.,24.0,0.,24.0
1980-11-14 19:48:22.880 ,0,0,0.,24.0,0.,24.0,0.,24.0,0.,24.0
1980-11-14 19:48:46.880 ,1,1,0.,24.0,0.,24.0,1.,24.0,0.,24.0
1980-11-14 19:49:10.880 ,1,0,0.,24.0,0.,24.0,0.,24.0,0.,24.0
1980-11-14 19:49:34.880 ,2,1,0.,24.0,0.,24.0,0.,24.0,0.,24.0
1980-11-14 19:49:58.880 ,2,0,0.,24.0,0.,24.0,1.,24.0,0.,24.0
1980-11-14 19:50:22.880 ,3,1,0.,24.0,0.,24.0,0.,24.0,0.,24.0
1980-11-14 19:50:46.880 ,3,0,0.,24.0,0.,24.0,0.,24.0,0.,24.0
1980-11-14 19:51:10.880 ,4,1,0.,24.0,1.,24.0,0.,24.0,0.,24.0
1980-11-14 19:51:34.880 ,4,0,0.,24.0,0.,24.0,1.,24.0,0.,24.0
1980-11-14 19:51:58.880 ,5,1,0.,24.0,0.,24.0,1.,24.0,0.,24.0
1980-11-14 19:52:22.880 ,5,0,0.,24.0,0.,24.0,0.,24.0,0.,24.0
1980-11-14 19:52:46.880 ,6,1,0.,24.0,0.,24.0,0.,24.0,0.,24.0
1980-11-14 19:53:10.880 ,6,0,0.,24.0,0.,24.0,0.,24.0,0.,24.0
1980-11-14 19:53:34.880 ,7,1,2.,24.0,0.,24.0,1.,24.0,0.,24.0
1980-11-14 19:53:58.880 ,7,0,18.,24.0,0.,24.0,1.,24.0,0.,24.0
1980-11-14 19:54:22.880 ,7,1,13.,24.0,1.,24.0,1.,24.0,0.,24.0
1980-11-14 19:54:46.880 ,7,0,11.,24.0,0.,24.0,1.,24.0,0.,24.0
1980-11-14 19:55:10.880 ,6,1,11.,24.0,0.,24.0,0.,24.0,0.,24.0
1980-11-14 19:55:34.880 ,6,0,0.,24.0,0.,24.0,0.,24.0,0.,24.0
1980-11-14 19:55:58.880 ,5,1,0.,24.0,0.,24.0,0.,24.0,0.,24.0
1980-11-14 19:56:22.880 ,5,0,0.,24.0,0.,24.0,0.,24.0,0.,24.0
1980-11-14 19:56:46.880 ,4,1,0.,24.0,0.,24.0,1.,24.0,0.,24.0
1980-11-14 19:57:10.880 ,4,0,0.,24.0,0.,24.0,0.,24.0,0.,24.0
1980-11-14 19:57:34.880 ,3,1,0.,24.0,0.,24.0,0.,24.0,0.,24.0
1980-11-14 19:57:58.880 ,3,0,0.,24.0,0.,24.0,1.,24.0,0.,24.0
1980-11-14 19:58:22.880 ,2,1,0.,24.0,0.,24.0,1.,24.0,0.,24.0
1980-11-14 19:58:46.880 ,2,0,0.,24.0,0.,24.0,1.,24.0,0.,24.0
1980-11-14 19:59:10.880 ,1,1,0.,24.0,0.,24.0,0.,24.0,0.,24.0
1980-11-14 19:59:34.880 ,1,0,0.,24.0,0.,24.0,0.,24.0,0.,24.0
1980-11-14 19:59:58.880 ,0,1,0.,24.0,0.,24.0,0.,24.0,0.,24.0
1980-11-14 20:00:22.880 ,0,0,0.,24.0,0.,24.0,0.,24.0,0.,24.0
1980-11-14 20:00:46.880 ,0,1,0.,24.0,0.,24.0,2.,24.0,0.,24.0
1980-11-14 20:01:10.880 ,0,0,0.,24.0,0.,24.0,0.,24.0,0.,24.0
1980-11-14 20:01:34.880 ,1,1,0.,24.0,0.,24.0,0.,24.0,0.,24.0
1980-11-14 20:01:58.880 ,1,0,0.,24.0,0.,24.0,0.,24.0,0.,24.0
1980-11-14 20:02:22.880 ,2,1,0.,24.0,0.,24.0,0.,24.0,0.,24.0
1980-11-14 20:02:46.880 ,2,0,0.,24.0,0.,24.0,0.,24.0,0.,24.0
1980-11-14 20:03:10.880 ,3,1,0.,24.0,0.,24.0,3.,24.0,0.,24.0
1980-11-14 20:03:34.880 ,3,0,0.,24.0,0.,24.0,1.,24.0,0.,24.0
1980-11-14 20:03:58.880 ,4,1,0.,24.0,0.,24.0,0.,24.0,0.,24.0
1980-11-14 20:04:22.880 ,4,0,0.,24.0,0.,24.0,1.,24.0,0.,24.0
1980-11-14 20:04:46.880 ,5,1,0.,24.0,0.,24.0,0.,24.0,0.,24.0
1980-11-14 20:05:10.880 ,5,0,0.,24.0,0.,24.0,0.,24.0,0.,24.0
1980-11-14 20:05:34.880 ,6,1,0.,24.0,0.,24.0,0.,24.0,0.,24.0
1980-11-14 20:05:58.880 ,6,0,0.,24.0,0.,24.0,0.,24.0,0.,24.0
1980-11-14 20:06:22.880 ,7,1,2.,24.0,0.,24.0,0.,24.0,0.,24.0
1980-11-14 20:06:46.880 ,7,0,6.,24.0,0.,24.0,0.,24.0,0.,24.0
1980-11-14 20:07:10.880 ,7,1,11.,24.0,0.,24.0,0.,24.0,0.,24.0
1980-11-14 20:07:34.880 ,7,0,9.,24.0,0.,24.0,1.,24.0,0.,24.0
1980-11-14 20:07:58.880 ,6,1,9.,24.0,0.,24.0,1.,24.0,0.,24.0
1980-11-14 20:08:22.880 ,6,0,0.,24.0,0.,24.0,0.,24.0,0.,24.0
1980-11-14 20:08:46.880 ,5,1,0.,24.0,0.,24.0,0.,24.0,0.,24.0
1980-11-14 20:09:10.880 ,5,0,0.,24.0,0.,24.0,1.,24.0,0.,24.0
1980-11-14 20:09:34.880 ,4,1,0.,24.0,0.,24.0,0.,24.0,0.,24.0
1980-11-14 20:09:58.880 ,4,0,0.,24.0,0.,24.0,0.,24.0,0.,24.0
1980-11-14 20:10:22.880 ,3,1,0.,24.0,0.,24.0,1.,24.0,0.,24.0
1980-11-14 20:10:46.880 ,3,0,0.,24.0,0.,24.0,0.,24.0,0.,24.0
1980-11-14 20:11:10.880 ,2,1,0.,24.0,0.,24.0,0.,24.0,0.,24.0
1980-11-14 20:11:34.880 ,2,0,0.,24.0,0.,24.0,0.,24.0,0.,24.0
1980-11-14 20:11:58.880 ,1,1,0.,24.0,0.,24.0,0.,24.0,0.,24.0
1980-11-14 20:12:22.880 ,1,0,0.,24.0,0.,24.0,1.,24.0,0.,24.0
1980-11-14 20:12:46.880 ,0,1,0.,24.0,0.,24.0,1.,24.0,0.,24.0
1980-11-14 20:13:10.880 ,0,0,0.,24.0,0.,24.0,2.,24.0,0.,24.0
1980-11-14 20:13:34.880 ,0,1,0.,24.0,0.,24.0,0.,24.0,0.,24.0
1980-11-14 20:13:58.880 ,0,0,0.,24.0,0.,24.0,1.,24.0,0.,24.0
1980-11-14 20:14:22.880 ,1,1,0.,24.0,0.,24.0,1.,24.0,0.,24.0
1980-11-14 20:14:46.880 ,1,0,0.,24.0,0.,24.0,0.,24.0,0.,24.0
1980-11-14 20:15:10.880 ,2,1,0.,24.0,0.,24.0,1.,24.0,0.,24.0
1980-11-14 20:15:34.880 ,2,0,0.,24.0,0.,24.0,0.,24.0,0.,24.0
1980-11-14 20:15:58.880 ,3,1,0.,24.0,0.,24.0,1.,24.0,0.,24.0
1980-11-14 20:16:22.880 ,3,0,0.,24.0,0.,24.0,0.,24.0,0.,24.0
1980-11-14 20:16:46.880 ,4,1,0.,24.0,0.,24.0,0.,24.0,0.,24.0
1980-11-14 20:17:10.880 ,4,0,0.,24.0,0.,24.0,0.,24.0,0.,24.0
1980-11-14 20:17:34.880 ,5,1,0.,24.0,0.,24.0,0.,24.0,0.,24.0
1980-11-14 20:17:58.880 ,5,0,0.,24.0,0.,24.0,1.,24.0,0.,24.0
1980-11-14 20:18:22.880 ,6,1,0.,24.0,0.,24.0,0.,24.0,0.,24.0
1980-11-14 20:18:46.880 ,6,0,0.,24.0,0.,24.0,0.,24.0,0.,24.0
1980-11-14 20:19:10.880 ,7,1,1.,24.0,1.,24.0,0.,24.0,0.,24.0
1980-11-14 20:19:34.880 ,7,0,8.,24.0,0.,24.0,0.,24.0,0.,24.0
1980-11-14 20:19:58.880 ,7,1,12.,24.0,0.,24.0,0.,24.0,0.,24.0
1980-11-14 20:20:22.880 ,7,0,7.,24.0,0.,24.0,0.,24.0,0.,24.0
1980-11-14 20:20:46.880 ,6,1,12.,24.0,0.,24.0,0.,24.0,0.,24.0
1980-11-14 20:21:10.880 ,6,0,0.,24.0,1.,24.0,1.,24.0,0.,24.0
1980-11-14 20:21:34.880 ,5,1,0.,24.0,0.,24.0,0.,24.0,0.,24.0
1980-11-14 20:21:58.880 ,5,0,0.,24.0,0.,24.0,1.,24.0,0.,24.0
1980-11-14 20:22:22.880 ,4,1,0.,24.0,0.,24.0,0.,24.0,0.,24.0
1980-11-14 20:22:46.880 ,4,0,0.,24.0,0.,24.0,0.,24.0,0.,24.0
1980-11-14 20:23:10.880 ,3,1,0.,24.0,0.,24.0,1.,24.0,0.,24.0
1980-11-14 20:23:34.880 ,3,0,0.,24.0,0.,24.0,2.,24.0,0.,24.0
1980-11-14 20:23:58.880 ,2,1,0.,24.0,0.,24.0,1.,24.0,0.,24.0
1980-11-14 20:24:22.880 ,2,0,1.,24.0,0.,24.0,2.,24.0,0.,24.0
1980-11-14 20:24:46.880 ,1,1,0.,24.0,0.,24.0,0.,24.0,0.,24.0
1980-11-14 20:25:10.880 ,1,0,0.,24.0,0.,24.0,0.,24.0,0.,24.0
1980-11-14 20:25:34.880 ,0,1,0.,24.0,0.,24.0,0.,24.0,0.,24.0
1980-11-14 20:25:58.880 ,0,0,0.,24.0,0.,24.0,0.,24.0,0.,24.0
1980-11-14 20:26:22.880 ,0,1,0.,24.0,0.,24.0,2.,24.0,0.,24.0
1980-11-14 20:26:46.880 ,0,0,0.,24.0,0.,24.0,0.,24.0,0.,24.0
1980-11-14 20:27:10.880 ,1,1,0.,24.0,0.,24.0,0.,24.0,0.,24.0
1980-11-14 20:27:34.880 ,1,0,0.,24.0,0.,24.0,1.,24.0,0.,24.0
1980-11-14 20:27:58.880 ,2,1,0.,24.0,0.,24.0,1.,24.0,0.,24.0
1980-11-14 20:28:22.880 ,2,0,0.,24.0,0.,24.0,0.,24.0,0.,24.0
1980-11-14 20:28:46.880 ,3,1,0.,24.0,0.,24.0,0.,24.0,0.,24.0
1980-11-14 20:29:10.880 ,3,0,0.,24.0,0.,24.0,1.,24.0,0.,24.0
1980-11-14 20:29:34.880 ,4,1,0.,24.0,0.,24.0,1.,24.0,0.,24.0
1980-11-14 20:29:58.880 ,4,0,0.,24.0,0.,24.0,0.,24.0,0.,24.0
1980-11-14 20:30:22.880 ,5,1,0.,24.0,0.,24.0,0.,24.0,0.,24.0
1980-11-14 20:30:46.880 ,5,0,0.,24.0,0.,24.0,0.,24.0,0.,24.0
1980-11-14 20:31:10.880 ,6,1,0.,24.0,0.,24.0,0.,24.0,0.,24.0
1980-11-14 20:31:34.880 ,6,0,0.,24.0,0.,24.0,0.,24.0,0.,24.0
1980-11-14 20:31:58.880 ,7,1,1.,24.0,0.,24.0,0.,24.0,0.,24.0
1980-11-14 20:32:22.880 ,7,0,7.,24.0,0.,24.0,0.,24.0,0.,24.0
1980-11-14 20:32:46.880 ,7,1,14.,24.0,0.,24.0,0.,24.0,0.,24.0